FW5735 Weather Reports


time (UTC)temp
F
wind
direction
speed
knots
gust
knots
rain 1hr
in
rain 24hr
in
rain mn
in
humidity
%
barometer
mb
20260508141511 58 121 1.7 5.2 0.00 0.78 0.01 80 1001.5
20260508140003 57 117 1.7 4.3 0.00 0.78 0.01 81 1001.7
20260508134558 55 110 3.5 7.0 0.00 0.78 0.01 83 1001.7
20260508133059 53 229 1.7 5.2 0.00 0.78 0.01 83 1001.9
20260508131557 53 240 1.7 3.5 0.00 0.78 0.01 88 1001.9
20260508124550 50 179 0.0 1.7 0.00 0.78 0.01 99 1002.1
20260508123054 49 188 0.0 2.6 0.00 0.78 0.01 100 1001.9
20260508121545 48 180 0.0 0.0 0.00 0.78 0.01 100 1001.9
20260508120047 47 136 0.0 0.0 0.00 0.78 0.01 100 1002.2
20260508114549 46 124 1.7 3.5 0.00 0.78 0.01 100 1002.5
20260508113043 46 92 0.0 2.6 0.00 0.78 0.01 99 1002.5
20260508111547 46 108 0.0 3.5 0.00 0.78 0.01 99 1002.3
20260508110043 45 66 0.9 4.3 0.00 0.78 0.01 99 1002.4
20260508104544 45 69 2.6 5.2 0.01 0.78 0.01 99 1002.2
20260508103043 46 76 2.6 6.1 0.01 0.78 0.01 99 1002.3
20260508101541 46 74 0.0 2.6 0.01 0.78 0.01 100 1002.3
20260508100033 46 153 0.0 0.0 0.01 0.78 0.01 99 1002.2
20260508094543 46 155 0.0 0.0 0.00 0.77 0.00 99 1002.2
20260508093033 45 155 0.0 0.0 0.00 0.77 0.00 99 1001.7
20260508091547 45 154 0.0 0.0 0.00 0.77 0.00 99 1002.0
20260508090042 45 101 0.0 0.0 0.00 0.77 0.00 99 1001.5
20260508084528 46 61 0.0 0.0 0.00 0.77 0.00 99 1001.4
20260508083027 46 298 0.0 0.0 0.00 0.77 0.00 99 1001.8
20260508081532 46 297 0.0 0.0 0.00 0.77 0.00 99 1001.5
20260508080028 47 290 0.0 0.9 0.00 0.77 0.00 99 1001.7
20260508074523 47 311 1.7 5.2 0.00 0.77 0.00 99 1001.4
20260508073021 47 323 0.0 1.7 0.00 0.77 0.00 99 1001.4
20260508071523 47 78 0.0 0.0 0.00 0.77 0.00 99 1001.5
20260508070018 47 77 0.9 3.5 0.00 0.77 0.00 99 1001.5
20260508064527 48 142 0.0 0.0 0.00 0.77 0.00 99 1001.8
20260508063014 48 142 0.0 0.0 0.00 0.77 0.00 99 1001.5
20260508061520 48 142 0.0 0.0 0.00 0.77 0.00 99 1001.8
20260508060021 48 142 0.0 0.0 0.00 0.77 0.00 99 1001.5
20260508054513 48 142 0.0 0.0 0.00 0.77 0.00 99 1001.8
20260508053013 48 142 0.0 0.0 0.00 0.77 0.00 99 1001.6
20260508051512 48 142 0.0 0.0 0.00 0.77 0.00 99 1001.6
20260508050011 48 141 0.0 0.0 0.00 0.77 0.00 99 1001.7
20260508044511 48 138 0.0 0.0 0.00 0.77 0.00 99 1001.5
20260508043014 48 138 0.0 0.0 0.00 0.77 0.00 98 1001.5
20260508041507 48 139 0.0 0.9 0.00 0.77 0.00 98 1001.5
20260508040006 48 139 0.0 0.9 0.00 0.77 0.00 98 1001.9
20260508034504 49 69 0.0 7.0 0.00 0.77 0.00 97 1002.0
20260508033115 50 74 0.0 0.9 0.00 0.77 0.00 98 1001.9
20260508031556 51 74 0.0 2.6 0.00 0.77 0.00 98 1001.8
20260508030107 51 63 0.0 0.0 0.00 0.77 0.00 98 1002.0
20260508024618 51 45 0.0 0.0 0.00 0.77 0.77 97 1002.2
20260508023053 51 45 0.0 0.0 0.00 0.77 0.77 97 1002.1
20260508021552 52 45 0.0 0.9 0.00 0.77 0.77 97 1001.9
20260508020106 52 44 0.0 0.0 0.00 0.77 0.77 98 1002.0
20260508014557 52 42 0.0 1.7 0.00 0.77 0.77 97 1002.1
20260508013105 52 42 0.0 0.0 0.00 0.77 0.77 97 1002.1
20260508011557 52 42 0.0 1.7 0.00 0.77 0.77 97 1002.1
20260508010055 52 40 0.0 3.5 0.00 0.77 0.77 97 1002.1
20260508004549 52 15 0.9 4.3 0.00 0.77 0.77 97 1001.8
20260508003050 53 329 0.0 0.0 0.00 0.77 0.77 98 1001.8
20260508001555 53 306 0.9 3.5 0.00 0.77 0.77 97 1001.8
20260508000050 53 321 1.7 4.3 0.00 0.77 0.77 97 1001.8
20260507234547 54 16 0.9 2.6 0.00 0.77 0.77 97 1001.7
20260507233047 54 174 0.9 2.6 0.00 0.77 0.77 97 1001.5
20260507231547 54 176 0.9 2.6 0.00 0.77 0.77 97 1001.5
20260507230048 54 181 0.9 2.6 0.00 0.77 0.77 97 1001.2
20260507224545 54 209 0.0 2.6 0.00 0.77 0.77 97 1001.4
20260507223044 55 215 0.9 3.5 0.00 0.77 0.77 97 1001.3
20260507221543 55 234 1.7 5.2 0.00 0.77 0.77 97 1001.3
20260507220042 55 215 3.5 7.8 0.00 0.77 0.77 97 1001.6
20260507214546 54 185 2.6 8.7 0.00 0.77 0.77 97 1001.4
20260507213050 55 183 2.6 8.7 0.00 0.77 0.77 97 1001.5
20260507211549 55 227 5.2 13.0 0.00 0.77 0.77 97 1001.5
20260507210042 55 201 5.2 8.7 0.00 0.77 0.77 97 1001.4
20260507204541 55 165 3.5 8.7 0.01 0.77 0.77 97 1001.3
20260507203039 56 208 4.3 7.8 0.01 0.77 0.77 98 1001.2
20260507201543 55 205 0.9 4.3 0.02 0.77 0.77 98 1001.3
20260507200042 54 269 5.2 7.8 0.02 0.77 0.77 98 1001.2
20260507194535 54 288 4.3 7.0 0.06 0.76 0.76 98 1001.3
20260507193039 54 165 0.0 8.7 0.09 0.76 0.76 98 1000.6
20260507191533 54 77 6.1 9.6 0.13 0.75 0.75 98 1000.3
20260507190032 54 123 2.6 6.1 0.16 0.75 0.75 98 1001.4
20260507184533 54 165 4.3 7.0 0.17 0.71 0.71 98 1002.0
20260507183031 55 230 2.6 7.8 0.19 0.66 0.66 97 1003.0
20260507181523 55 173 5.2 8.7 0.26 0.62 0.62 97 1002.8
20260507180039 55 153 3.5 7.0 0.31 0.59 0.59 98 1003.1
20260507174525 55 182 3.5 8.7 0.37 0.53 0.53 98 1003.5
20260507173027 56 171 1.7 12.2 0.43 0.47 0.47 98 1003.3
20260507171520 56 222 3.5 8.7 0.35 0.36 0.36 98 1004.1
20260507170036 56 226 7.0 13.0 0.26 0.27 0.27 97 1004.2
20260507164517 56 238 7.0 13.9 0.14 0.14 0.14 96 1004.1
20260507163015 57 204 9.6 20.0 0.04 0.04 0.04 96 1003.5
20260507161512 57 179 9.6 20.9 0.02 0.02 0.02 95 1003.4
20260507160014 57 195 10.4 16.5 0.01 0.01 0.01 96 1003.5
20260507154510 57 191 7.8 18.2 0.00 0.00 0.00 95 1004.1
20260507153008 57 188 7.0 17.4 0.00 0.00 0.00 94 1004.6
20260507151504 57 206 7.8 14.8 0.00 0.00 0.00 94 1005.1
20260507150004 57 163 7.8 20.0 0.00 0.00 0.00 94 1005.1
20260507144501 57 172 9.6 20.0 0.00 0.00 0.00 93 1005.7
20260507143107 56 217 7.8 19.1 0.00 0.00 0.00 94 1006.1